BAW44EL LFPG-EGLL

Flight info

Callsign BAW44EL
Flight time 0h 43m
Altitude 24000
Route OPALE DCT KESAX DCT DIMAL DCT ALESO
Aircraft A320/M-SDE3FGHIRWY/LB1

Departure

Time 2026-05-07 10:09
Airport Charles de Gaulle International Airport (LFPG)

Arrival

Time 2026-05-07 10:52
Airport London Heathrow Airport (EGLL)
Time Latitude Longitude Altitude Speed Heading
2026-05-07 09:53 49.00685 2.58015 354 ft 0 kts 254°
2026-05-07 09:59 49.00685 2.58016 354 ft 1 kts 254°
2026-05-07 09:59 49.00692 2.58053 362 ft 4 kts 255°
2026-05-07 09:59 49.00699 2.58093 359 ft 4 kts 259°
2026-05-07 10:00 49.00701 2.58119 356 ft 2 kts 287°
2026-05-07 10:00 49.00695 2.58133 358 ft 2 kts 346°
2026-05-07 10:00 49.00676 2.58136 360 ft 0 kts 357°
2026-05-07 10:00 49.00701 2.58133 358 ft 4 kts 355°
2026-05-07 10:01 49.00718 2.58131 358 ft 2 kts 356°
2026-05-07 10:01 49.00729 2.58130 359 ft 2 kts 357°
2026-05-07 10:01 49.00735 2.58129 359 ft 0 kts 357°
2026-05-07 10:03 49.00736 2.58129 354 ft 1 kts 357°
2026-05-07 10:03 49.00766 2.58126 359 ft 7 kts 355°
2026-05-07 10:04 49.00839 2.58115 355 ft 14 kts 354°
2026-05-07 10:04 49.00948 2.58099 359 ft 17 kts 354°
2026-05-07 10:04 49.01077 2.58079 363 ft 20 kts 356°
2026-05-07 10:04 49.01225 2.58063 357 ft 23 kts 353°
2026-05-07 10:05 49.01390 2.58038 355 ft 25 kts 354°
2026-05-07 10:05 49.01572 2.58013 360 ft 27 kts 356°
2026-05-07 10:05 49.01769 2.57996 357 ft 29 kts 353°
2026-05-07 10:05 49.01957 2.57905 361 ft 27 kts 298°
2026-05-07 10:06 49.01996 2.57624 357 ft 28 kts 264°
2026-05-07 10:06 49.01984 2.57315 355 ft 30 kts 268°
2026-05-07 10:06 49.01998 2.57062 357 ft 10 kts 326°
2026-05-07 10:06 49.02053 2.57062 355 ft 13 kts
2026-05-07 10:07 49.02185 2.57043 359 ft 23 kts 321°
2026-05-07 10:07 49.02320 2.56941 360 ft 20 kts 336°
2026-05-07 10:07 49.02360 2.56866 355 ft 6 kts 268°
2026-05-07 10:07 49.02360 2.56864 355 ft 6 kts 268°
2026-05-07 10:08 49.02358 2.56805 354 ft 8 kts 265°
2026-05-07 10:08 49.02351 2.56677 354 ft 24 kts 265°
2026-05-07 10:08 49.02316 2.56056 360 ft 93 kts 266°
2026-05-07 10:09 49.02240 2.54787 372 ft 142 kts 266°
2026-05-07 10:09 49.02147 2.53244 758 ft 149 kts 265°
2026-05-07 10:09 49.02038 2.51594 1299 ft 162 kts 265°
2026-05-07 10:09 49.01917 2.49843 1906 ft 174 kts 266°
2026-05-07 10:10 49.01853 2.47951 2559 ft 185 kts 269°
2026-05-07 10:10 49.01954 2.45950 3097 ft 195 kts 289°
2026-05-07 10:10 49.02646 2.44058 3436 ft 218 kts 310°
2026-05-07 10:10 49.03803 2.42342 3806 ft 246 kts 322°
2026-05-07 10:11 49.05369 2.40938 4170 ft 279 kts 336°
2026-05-07 10:11 49.07217 2.39730 4959 ft 289 kts 338°
2026-05-07 10:11 49.09056 2.38623 6220 ft 281 kts 339°
2026-05-07 10:11 49.10853 2.37563 7383 ft 275 kts 338°
2026-05-07 10:12 49.12644 2.36497 8293 ft 279 kts 338°
2026-05-07 10:12 49.14464 2.35402 9208 ft 284 kts 338°
2026-05-07 10:12 49.16314 2.34278 10109 ft 288 kts 338°
2026-05-07 10:12 49.18217 2.33117 10662 ft 303 kts 338°
2026-05-07 10:13 49.20230 2.31886 11077 ft 320 kts 337°
2026-05-07 10:13 49.22347 2.30590 11461 ft 336 kts 337°
2026-05-07 10:13 49.24565 2.29230 11922 ft 349 kts 337°
2026-05-07 10:13 49.26838 2.27838 12666 ft 353 kts 337°
2026-05-07 10:14 49.29132 2.26433 13526 ft 357 kts 337°
2026-05-07 10:14 49.31451 2.25009 14279 ft 361 kts 337°
2026-05-07 10:14 49.33793 2.23566 14953 ft 365 kts 337°
2026-05-07 10:14 49.36162 2.22104 15572 ft 368 kts 337°
2026-05-07 10:15 49.38547 2.20631 16184 ft 372 kts 337°
2026-05-07 10:15 49.40951 2.19143 16809 ft 375 kts 337°
2026-05-07 10:15 49.43387 2.17634 17440 ft 379 kts 337°
2026-05-07 10:15 49.45816 2.16129 18077 ft 382 kts 337°
2026-05-07 10:16 49.48330 2.14575 18683 ft 386 kts 337°
2026-05-07 10:16 49.50802 2.13047 19272 ft 389 kts 337°
2026-05-07 10:16 49.53325 2.11484 19885 ft 392 kts 337°
2026-05-07 10:16 49.55867 2.09901 20489 ft 396 kts 337°
2026-05-07 10:17 49.58428 2.08302 21086 ft 398 kts 337°
2026-05-07 10:17 49.61007 2.06693 21641 ft 401 kts 337°
2026-05-07 10:17 49.63606 2.05069 22188 ft 404 kts 337°
2026-05-07 10:17 49.66223 2.03432 22709 ft 407 kts 337°
2026-05-07 10:18 49.68859 2.01783 23222 ft 410 kts 337°
2026-05-07 10:18 49.71523 2.00114 23713 ft 413 kts 337°
2026-05-07 10:18 49.74198 1.98440 24008 ft 415 kts 337°
2026-05-07 10:18 49.76891 1.96755 24076 ft 423 kts 337°
2026-05-07 10:19 49.79658 1.95021 24087 ft 432 kts 337°
2026-05-07 10:19 49.82449 1.93270 24084 ft 433 kts 337°
2026-05-07 10:19 49.85246 1.91509 24083 ft 433 kts 337°
2026-05-07 10:19 49.88035 1.89731 24082 ft 433 kts 335°
2026-05-07 10:20 49.90682 1.87511 24082 ft 432 kts 326°
2026-05-07 10:20 49.93084 1.84718 24081 ft 432 kts 320°
2026-05-07 10:20 49.95429 1.81804 24084 ft 432 kts 320°
2026-05-07 10:20 49.97775 1.78900 24081 ft 432 kts 321°
2026-05-07 10:21 50.00129 1.75996 24081 ft 432 kts 321°
2026-05-07 10:21 50.02486 1.73086 24086 ft 432 kts 321°
2026-05-07 10:21 50.04839 1.70180 24092 ft 432 kts 321°
2026-05-07 10:21 50.07283 1.67456 24095 ft 433 kts 328°
2026-05-07 10:22 50.09959 1.65323 24094 ft 433 kts 334°
2026-05-07 10:22 50.12703 1.63363 24098 ft 433 kts 334°
2026-05-07 10:22 50.15438 1.61390 24098 ft 433 kts 334°
2026-05-07 10:22 50.18167 1.59403 24096 ft 433 kts 334°
2026-05-07 10:23 50.20899 1.57405 24097 ft 433 kts 334°
2026-05-07 10:23 50.23629 1.55411 24099 ft 433 kts 334°
2026-05-07 10:23 50.26362 1.53418 24099 ft 433 kts 334°
2026-05-07 10:23 50.29055 1.51456 24082 ft 431 kts 334°
2026-05-07 10:24 50.31767 1.49480 23846 ft 418 kts 334°
2026-05-07 10:24 50.34404 1.47553 23595 ft 419 kts 334°
2026-05-07 10:24 50.37003 1.45648 23347 ft 417 kts 334°
2026-05-07 10:24 50.39629 1.43720 23064 ft 415 kts 334°
2026-05-07 10:25 50.42276 1.41778 22777 ft 413 kts 334°
2026-05-07 10:25 50.44847 1.39891 22511 ft 412 kts 334°
2026-05-07 10:25 50.47407 1.37885 22241 ft 410 kts 328°
2026-05-07 10:25 50.49746 1.35366 21971 ft 407 kts 320°
2026-05-07 10:26 50.51806 1.32349 21707 ft 404 kts 312°
2026-05-07 10:26 50.53064 1.30187 21536 ft 403 kts 311°
2026-05-07 10:26 50.55596 1.25852 21194 ft 402 kts 312°
2026-05-07 10:26 50.56852 1.23716 21020 ft 400 kts 312°
2026-05-07 10:27 50.58755 1.20527 20765 ft 399 kts 313°
2026-05-07 10:27 50.60696 1.17418 20513 ft 398 kts 314°
2026-05-07 10:27 50.62660 1.14357 20254 ft 397 kts 315°
2026-05-07 10:27 50.64624 1.11320 20017 ft 395 kts 315°
2026-05-07 10:28 50.66579 1.08292 19773 ft 393 kts 315°
2026-05-07 10:28 50.68522 1.05259 19531 ft 392 kts 314°
2026-05-07 10:28 50.70446 1.02229 19286 ft 391 kts 314°
2026-05-07 10:28 50.72364 0.99188 19048 ft 389 kts 314°
2026-05-07 10:29 50.74263 0.96166 18810 ft 388 kts 314°
2026-05-07 10:29 50.76157 0.93137 18569 ft 387 kts 314°
2026-05-07 10:29 50.78040 0.90119 18329 ft 385 kts 314°
2026-05-07 10:30 50.81791 0.84117 17782 ft 382 kts 314°
2026-05-07 10:30 50.83640 0.81157 17369 ft 375 kts 314°
2026-05-07 10:30 50.85443 0.78274 16828 ft 370 kts 314°
2026-05-07 10:30 50.87267 0.75351 16258 ft 366 kts 314°
2026-05-07 10:31 50.89023 0.72532 15702 ft 362 kts 314°
2026-05-07 10:31 50.90790 0.69696 15130 ft 359 kts 314°
2026-05-07 10:31 50.92535 0.66890 14545 ft 357 kts 314°
2026-05-07 10:31 50.94272 0.64093 13984 ft 354 kts 314°
2026-05-07 10:32 50.95998 0.61313 13360 ft 352 kts 314°
2026-05-07 10:32 50.97702 0.58562 12848 ft 347 kts 314°
2026-05-07 10:32 50.99414 0.55793 12358 ft 353 kts 314°
2026-05-07 10:32 51.01127 0.53020 11941 ft 350 kts 314°
2026-05-07 10:33 51.02828 0.50262 11539 ft 348 kts 314°
2026-05-07 10:33 51.04513 0.47523 11127 ft 347 kts 314°
2026-05-07 10:33 51.06196 0.44783 10897 ft 346 kts 314°
2026-05-07 10:33 51.07866 0.42101 10893 ft 332 kts 315°
2026-05-07 10:34 51.09450 0.39652 10890 ft 313 kts 316°
2026-05-07 10:34 51.10988 0.37330 10894 ft 296 kts 317°
2026-05-07 10:34 51.12453 0.35132 10893 ft 285 kts 317°
2026-05-07 10:34 51.13901 0.32952 10895 ft 287 kts 317°
2026-05-07 10:35 51.15348 0.30764 10891 ft 287 kts 316°
2026-05-07 10:35 51.16791 0.28567 10892 ft 287 kts 316°
2026-05-07 10:35 51.18234 0.26361 10900 ft 287 kts 316°
2026-05-07 10:35 51.19676 0.24153 10563 ft 288 kts 316°
2026-05-07 10:36 51.21114 0.21948 9989 ft 286 kts 316°
2026-05-07 10:36 51.22542 0.19752 9464 ft 284 kts 316°
2026-05-07 10:36 51.23954 0.17583 8796 ft 280 kts 316°
2026-05-07 10:36 51.25342 0.15446 8165 ft 275 kts 316°
2026-05-07 10:37 51.26694 0.13360 7821 ft 263 kts 316°
2026-05-07 10:37 51.28026 0.11305 7622 ft 268 kts 317°
2026-05-07 10:37 51.29361 0.09244 7385 ft 266 kts 316°
2026-05-07 10:37 51.30671 0.07219 7210 ft 252 kts 317°
2026-05-07 10:38 51.31885 0.05285 7091 ft 245 kts 310°
2026-05-07 10:38 51.32670 0.02658 6979 ft 280 kts 282°
2026-05-07 10:38 51.32810 -0.00512 6840 ft 287 kts 272°
2026-05-07 10:38 51.32802 -0.03664 6717 ft 279 kts 271°
2026-05-07 10:39 51.32778 -0.06713 6578 ft 269 kts 271°
2026-05-07 10:39 51.32749 -0.09668 6325 ft 264 kts 271°
2026-05-07 10:39 51.32721 -0.12566 5969 ft 263 kts 271°
2026-05-07 10:39 51.32692 -0.15491 5601 ft 263 kts 271°
2026-05-07 10:40 51.32659 -0.18407 5254 ft 263 kts 271°
2026-05-07 10:40 51.32626 -0.21325 4905 ft 262 kts 271°
2026-05-07 10:40 51.32588 -0.24236 4552 ft 261 kts 271°
2026-05-07 10:40 51.32551 -0.27104 4630 ft 257 kts 271°
2026-05-07 10:41 51.32512 -0.30003 5502 ft 264 kts 271°
2026-05-07 10:41 51.32473 -0.32951 6482 ft 265 kts 271°
2026-05-07 10:41 51.32437 -0.35900 6839 ft 266 kts 271°
2026-05-07 10:41 51.32402 -0.38875 6973 ft 267 kts 271°
2026-05-07 10:42 51.32366 -0.41837 7002 ft 264 kts 271°
2026-05-07 10:42 51.32330 -0.44690 7000 ft 249 kts 271°
2026-05-07 10:42 51.32291 -0.47380 7002 ft 235 kts 271°
2026-05-07 10:42 51.32251 -0.49899 7010 ft 219 kts 271°
2026-05-07 10:43 51.32206 -0.52265 7009 ft 216 kts 271°
2026-05-07 10:43 51.32161 -0.54827 7002 ft 243 kts 271°
2026-05-07 10:43 51.32122 -0.57540 6944 ft 245 kts 271°
2026-05-07 10:43 51.32079 -0.60257 6724 ft 243 kts 271°
2026-05-07 10:44 51.32030 -0.62945 6444 ft 241 kts 271°
2026-05-07 10:44 51.31979 -0.65621 6129 ft 240 kts 271°
2026-05-07 10:44 51.31924 -0.68244 5795 ft 239 kts 271°
2026-05-07 10:44 51.31865 -0.70901 5510 ft 237 kts 271°
2026-05-07 10:45 51.31805 -0.73491 5320 ft 231 kts 271°
2026-05-07 10:45 51.31872 -0.76016 5013 ft 225 kts 290°
2026-05-07 10:45 51.32669 -0.78061 4746 ft 214 kts 324°
2026-05-07 10:45 51.33989 -0.78932 4573 ft 204 kts 354°
2026-05-07 10:46 51.35408 -0.79023 4262 ft 205 kts
2026-05-07 10:46 51.36844 -0.78988 3913 ft 207 kts
2026-05-07 10:46 51.38286 -0.78935 3630 ft 207 kts
2026-05-07 10:46 51.39710 -0.78887 3493 ft 201 kts
2026-05-07 10:47 51.41082 -0.78853 3362 ft 193 kts
2026-05-07 10:47 51.42401 -0.78827 3207 ft 186 kts
2026-05-07 10:47 51.43692 -0.78733 3053 ft 187 kts 13°
2026-05-07 10:47 51.44782 -0.77687 3011 ft 183 kts 44°
2026-05-07 10:48 51.45592 -0.76136 3007 ft 179 kts 50°
2026-05-07 10:48 51.46340 -0.74537 3007 ft 180 kts 51°
2026-05-07 10:48 51.47086 -0.72924 3003 ft 180 kts 52°
2026-05-07 10:48 51.47599 -0.71097 2914 ft 183 kts 78°
2026-05-07 10:49 51.47649 -0.69026 2720 ft 190 kts 86°
2026-05-07 10:49 51.47657 -0.66895 2490 ft 186 kts 86°
2026-05-07 10:49 51.47668 -0.64854 2228 ft 180 kts 86°
2026-05-07 10:49 51.47678 -0.62912 1988 ft 173 kts 86°
2026-05-07 10:50 51.47687 -0.61039 1765 ft 158 kts 86°
2026-05-07 10:50 51.47701 -0.59403 1560 ft 138 kts 85°
2026-05-07 10:50 51.47707 -0.57872 1369 ft 135 kts 84°
2026-05-07 10:50 51.47701 -0.56360 1301 ft 136 kts 87°
2026-05-07 10:51 51.47703 -0.54868 1056 ft 137 kts 85°
2026-05-07 10:51 51.47711 -0.53323 811 ft 137 kts 88°
2026-05-07 10:51 51.47722 -0.51810 550 ft 135 kts 89°
2026-05-07 10:51 51.47734 -0.50291 346 ft 136 kts 89°
2026-05-07 10:52 51.47747 -0.48778 166 ft 138 kts 91°
2026-05-07 10:52 51.47754 -0.47339 87 ft 112 kts 92°
2026-05-07 10:52 51.47756 -0.46568 93 ft 39 kts 89°
2026-05-07 10:52 51.47750 -0.46204 88 ft 18 kts 109°
2026-05-07 10:53 51.47666 -0.46110 90 ft 16 kts 149°
2026-05-07 10:53 51.47649 -0.46093 86 ft 0 kts 149°
2026-05-07 10:54 51.47611 -0.46070 86 ft 12 kts 175°
2026-05-07 10:54 51.47527 -0.46049 89 ft 12 kts 118°
2026-05-07 10:54 51.47519 -0.45898 86 ft 16 kts 93°
2026-05-07 10:55 51.47508 -0.45699 90 ft 19 kts 95°
2026-05-07 10:55 51.47507 -0.45574 90 ft 12 kts 90°
2026-05-07 10:55 51.47506 -0.45422 87 ft 16 kts 91°
2026-05-07 10:55 51.47504 -0.45221 88 ft 19 kts 90°
2026-05-07 10:56 51.47507 -0.45063 89 ft 10 kts 88°
2026-05-07 10:56 51.47508 -0.44885 89 ft 12 kts 89°
2026-05-07 10:56 51.47510 -0.44702 91 ft 19 kts 89°
2026-05-07 10:56 51.47476 -0.44568 88 ft 13 kts 155°
2026-05-07 10:57 51.47369 -0.44555 87 ft 17 kts 179°
2026-05-07 10:57 51.47242 -0.44555 87 ft 20 kts 181°
2026-05-07 10:57 51.47091 -0.44560 84 ft 23 kts 180°
2026-05-07 10:57 51.47061 -0.44553 86 ft 0 kts 173°
2026-05-07 10:58 51.47021 -0.44542 89 ft 12 kts 155°
2026-05-07 10:58 51.47018 -0.44454 87 ft 3 kts 61°
2026-05-07 10:58 51.47020 -0.44406 87 ft 6 kts 91°
2026-05-07 10:59 51.47019 -0.44389 89 ft 0 kts 91°